OPS 4682 DEB, 51498

Orbit data source: Space-Track

OPS 4682 DEB, 51498 is space debris in LEO originally from a launch on Sat, 03 Apr 1965 UTC launched from the Air Force Western Test Range (AFWTR). Debris objects in space refer to the collection of defunct objects orbiting the Earth. Examples of debris include non-operational satellites, rocket bodies, and fragments generated from explosions, collisions, or faulty payload assembly.

Loading next visibility...
Identifier
51498, 1965-027GJ
Orbit
LEO
Country
Flag of USUS
Related business
Manufacturer
Unknown
Mission
Spacecraft
Bus & Motor
Unknown
Mass
Unknown
Launch date (UTC)
1965-04-03 (61 years ago)
Launch vehicle
Unknown
Launch site
Air Force Western Test Range (AFWTR)
Object type
Payload
Rocket body
Debris
Shape & HBR
Unknown shape, 0.1 m
Radar Cross Section
Medium (>0.1 m² and <1 m²)

Expand to show TLE details & history
Last TLE update: 3 days ago

TLE from 3 days ago
0 OPS 4682 DEB
1 51498U 65027GJ  26260.57622860 -.00000268  00000-0 -94130-3 0  9997
2 51498  90.2566  14.7458 0027664 183.2607 176.8338 12.97833674537997
Epoch: 2026-09-17T13:49Z
TLE epoch observation values (Epoch: 2026-09-17T13:49:46.151Z)
Latitude
0.00002°
Longitude
170.79202°
Altitude
1,294.598 km
Speed
7.199 km/s
True Right ascension
00h 58m 58s
True Declination
0° 00' 00"
Sunlit
Object was in full shadow at epoch
Visualization orbit readout
Latitude
Unknown
Longitude
Unknown
Altitude
Unknown
Speed
Unknown
Apparent Right ascension
Unknown
Apparent Declination
Unknown
Sunlit
N/A
Visualization observer readout
Local Sidereal Time
09:47:42
Azimuth
Unknown
Elevation
Unknown
Doppler factor
Unknown
Orbital elements
Apogee altitude
1,288.868 km
Perigee altitude
1,246.565 km
Semi-major axis
7,645.853 km
Eccentricity
0.00277
Inclination
90.2566°
RAAN
14.7458°
Arg. of periapsis
183.2607°
True anomaly
176.85125°
Mean anomaly
176.8338°
Eccentric anomaly
176.84253°
Mean motion
3.24642 °/min
Orbital period
110.89 mins
BSTAR
-0.0009413
Loading maneuver chart data...
Computing Atmospheric mass density...
Loading historical data...
Loading historical data...
Loading historical data...
Loading historical data...
Loading historical data...
Loading historical data...
Loading historical data...

Documentation

Showing up to 5 results
|